TimePDT,TemperatureF,Dew PointF,Humidity,Sea Level PressureIn,VisibilityMPH,Wind Direction,Wind SpeedMPH,Gust SpeedMPH,PrecipitationIn,Events,Conditions,WindDirDegrees,DateUTC
12:07 AM,57.2,55.4,94,30.06,8.0,Calm,Calm,-,N/A,,Scattered Clouds,0,2011-10-12 07:07:00
12:16 AM,-9999,-9999,N/A,30.06,7.0,Calm,Calm,-,N/A,,Mostly Cloudy,0,2011-10-12 07:16:00
12:25 AM,-9999,-9999,N/A,30.06,10.0,Calm,Calm,-,0.01,,Scattered Clouds,0,2011-10-12 07:25:00
12:53 AM,-9999,-9999,N/A,30.05,9.0,Calm,Calm,-,0.01,,Scattered Clouds,0,2011-10-12 07:53:00
1:00 AM,-9999,-9999,N/A,30.05,2.5,Calm,Calm,-,N/A,,Mostly Cloudy,0,2011-10-12 08:00:00
1:09 AM,-9999,-9999,N/A,30.05,1.5,North,3.5,-,N/A,,Mostly Cloudy,350,2011-10-12 08:09:00
1:19 AM,-9999,-9999,N/A,30.05,1.0,North,3.5,-,N/A,,Mist,350,2011-10-12 08:19:00
1:30 AM,-9999,-9999,N/A,30.06,2.5,NW,3.5,-,N/A,,Overcast,320,2011-10-12 08:30:00
1:37 AM,-9999,-9999,N/A,30.06,5.0,Calm,Calm,-,N/A,,Haze,0,2011-10-12 08:37:00
1:53 AM,-9999,-9999,N/A,30.06,2.5,Calm,Calm,-,N/A,,Mostly Cloudy,0,2011-10-12 08:53:00
2:01 AM,57.2,53.6,88,30.06,6.0,Calm,Calm,-,N/A,,Scattered Clouds,0,2011-10-12 09:01:00
2:53 AM,57.0,54.0,89,30.06,10.0,WNW,4.6,-,N/A,,Clear,300,2011-10-12 09:53:00
3:53 AM,-9999,-9999,N/A,30.05,10.0,WNW,3.5,-,N/A,,Clear,290,2011-10-12 10:53:00
4:53 AM,-9999,-9999,N/A,30.05,10.0,Calm,Calm,-,N/A,,Clear,0,2011-10-12 11:53:00
5:53 AM,-9999,-9999,N/A,30.05,10.0,NW,3.5,-,N/A,,Clear,310,2011-10-12 12:53:00
7:53 AM,-9999,-9999,N/A,30.06,10.0,Calm,Calm,-,N/A,,Clear,0,2011-10-12 14:53:00
8:53 AM,64.0,59.0,84,30.08,10.0,Calm,Calm,-,N/A,,Clear,0,2011-10-12 15:53:00
9:53 AM,68.0,57.9,70,30.08,10.0,Calm,Calm,-,N/A,,Clear,0,2011-10-12 16:53:00
10:53 AM,73.9,60.1,62,30.07,10.0,Calm,Calm,-,N/A,,Clear,0,2011-10-12 17:53:00
2:53 PM,84.0,57.0,40,29.97,10.0,Variable,4.6,-,N/A,,Clear,0,2011-10-12 21:53:00
3:53 PM,84.0,57.0,40,29.96,10.0,WSW,5.8,-,N/A,,Clear,250,2011-10-12 22:53:00
4:53 PM,84.0,55.0,37,29.95,10.0,WSW,3.5,-,N/A,,Clear,250,2011-10-12 23:53:00
5:53 PM,80.1,57.0,45,29.94,10.0,West,3.5,-,N/A,,Clear,260,2011-10-13 00:53:00
7:53 PM,71.1,60.1,68,29.95,10.0,WNW,3.5,-,N/A,,Clear,300,2011-10-13 02:53:00
8:53 PM,68.0,57.9,70,29.96,10.0,WNW,3.5,-,N/A,,Clear,300,2011-10-13 03:53:00
10:53 PM,64.0,55.9,75,29.97,10.0,NW,4.6,-,N/A,,Clear,320,2011-10-13 05:53:00
11:53 PM,63.0,54.0,72,29.97,10.0,WNW,4.6,-,N/A,,Clear,300,2011-10-13 06:53:00